Location: Fort Wayne
(41.1310°N, 85.1290°W)
Time: 01:13:01
(UTC-04:00)

COSMOS 2428 - Visible Passes

Search period start: 23 October 2014 00:00
Search period end: 02 November 2014 00:00
Orbit: 842 x 859 km, 71.0° (Epoch: 22 October)

Date Brightness Start Highest point End Pass type
(mag) Time Alt. Az. Time Alt. Az. Time Alt. Az.
23 Oct 5.0 05:08:53 13° SSE 05:08:53 13° SSE 05:09:27 10° SSE visible
23 Oct 3.8 19:50:56 10° SW 19:56:23 47° WNW 20:01:55 10° NNE visible
24 Oct 3.8 19:38:39 10° SW 19:44:07 47° WNW 19:49:39 10° NNE visible
25 Oct 3.8 19:26:23 10° SW 19:31:51 47° WNW 19:37:22 10° NNE visible
26 Oct 3.8 19:14:06 10° SW 19:19:34 47° WNW 19:25:06 10° NNE visible
27 Oct 3.8 19:01:49 10° SW 19:07:18 47° WNW 19:12:50 10° NNE visible
